{"data":{"norad_id":43792,"epoch":"2026-09-20T02:19:57.972864Z","epoch_age_seconds":42590,"freshness":"FRESH","line1":"1 43792U 18099AL  26263.09719876  .00000995  00000+0  75187-4 0  9992","line2":"2 43792  97.3909 296.3985 0012286  17.7578 342.4076 15.04480750426079","mean_motion":15.0448075,"eccentricity":0.0012286,"inclination_deg":97.3909,"raan_deg":296.3985,"arg_perigee_deg":17.7578,"mean_anomaly_deg":342.4076,"bstar":7.5187e-5,"rev_number":42607,"period_min":95.714086072554,"perigee_km":544.58431730102,"apogee_km":561.61575294372,"semimajor_km":6931.2370351224,"source":"CELESTRAK","updated_at":"2026-09-20T09:00:14.406035Z"}}